SR9WXM Weather Reports


Display with metric or nautical units.
time (UTC)temp
F
wind
direction
speed
MPH
gust
MPH
rain 1hr
in
rain 24hr
in
rain mn
in
humidity
%
barometer
mb
20260508161925 42 49 2.0 5.0 0.00 0.00 0.00 100
20260508161522 42 48 3.0 5.0 0.00 0.00 0.00 100
20260508161122 42 46 4.0 5.0 0.00 0.00 0.00 100
20260508160722 42 37 3.0 5.0 0.00 0.00 0.00 100
20260508160323 42 47 3.0 5.0 0.00 0.00 0.00 100
20260508155923 42 44 4.0 7.0 0.00 0.00 0.00 100
20260508155521 42 79 4.0 8.0 0.00 0.00 0.00 100
20260508155121 42 45 3.0 5.0 0.00 0.00 0.00 100
20260508154721 42 44 3.0 5.0 0.00 0.00 0.00 100
20260508154321 42 46 3.0 6.0 0.00 0.00 0.00 100
20260508153921 42 29 2.0 3.0 0.00 0.00 0.00 100
20260508153519 42 51 3.0 6.0 0.00 0.00 0.00 100
20260508153119 42 44 4.0 8.0 0.00 0.00 0.00 100
20260508152719 42 43 5.0 8.0 0.00 0.00 0.00 100
20260508152319 42 21 5.0 8.0 0.00 0.00 0.00 100
20260508151919 43 22 4.0 7.0 0.00 0.00 0.00 100
20260508151517 43 32 6.0 8.0 0.00 0.00 0.00 100
20260508151117 43 36 2.0 5.0 0.00 0.00 0.00 100
20260508150718 43 47 3.0 9.0 0.00 0.00 0.00 100
20260508150318 43 30 3.0 8.0 0.00 0.00 0.00 100
20260508145918 43 37 1.0 3.0 0.00 0.00 0.00 100
20260508145516 43 38 2.0 3.0 0.00 0.00 0.00 100
20260508145116 43 9 3.0 5.0 0.00 0.00 0.00 100
20260508144716 43 33 2.0 4.0 0.00 0.00 0.00 100
20260508144307 43 48 3.0 10.0 0.00 0.00 0.00 100
20260508143907 43 23 3.0 5.0 0.00 0.00 0.00 100
20260508143505 43 74 2.0 5.0 0.00 0.00 0.00 100
20260508143105 43 48 4.0 7.0 0.00 0.00 0.00 100
20260508142705 43 29 1.0 3.0 0.00 0.00 0.00 100
20260508142306 43 31 1.0 2.0 0.00 0.00 0.00 100
20260508141902 43 33 1.0 2.0 0.00 0.00 0.00 100
20260508141500 43 51 1.0 3.0 0.00 0.00 0.00 100
20260508141100 43 5 2.0 3.0 0.00 0.00 0.00 100
20260508140700 43 13 2.0 3.0 0.00 0.00 0.00 100
20260508140300 43 32 2.0 5.0 0.00 0.00 0.00 100
20260508135859 43 18 4.0 9.0 0.00 0.00 0.00 100
20260508135457 43 39 2.0 4.0 0.00 0.00 0.00 100
20260508135057 43 342 3.0 6.0 0.00 0.00 0.00 100
20260508134657 43 20 4.0 6.0 0.00 0.00 0.00 100
20260508134258 43 17 3.0 7.0 0.00 0.00 0.00 100
20260508133857 43 36 3.0 7.0 0.00 0.00 0.00 100
20260508133455 43 8 5.0 8.0 0.00 0.00 0.00 100
20260508133056 43 7 3.0 7.0 0.00 0.00 0.00 100
20260508132656 43 348 4.0 7.0 0.00 0.00 0.00 100
20260508132256 43 352 4.0 7.0 0.00 0.00 0.00 100
20260508131856 43 29 2.0 7.0 0.00 0.00 0.00 100
20260508131454 43 30 5.0 9.0 0.00 0.00 0.00 100
20260508131054 43 11 4.0 6.0 0.00 0.00 0.00 100
20260508130654 43 0 4.0 8.0 0.00 0.00 0.00 100
20260508130254 43 2 4.0 8.0 0.00 0.00 0.00 100
20260508125854 43 15 5.0 8.0 0.00 0.00 0.00 100
20260508125452 44 27 5.0 7.0 0.00 0.00 0.00 100
20260508125052 44 21 3.0 7.0 0.00 0.00 0.00 100
20260508124652 44 20 4.0 6.0 0.00 0.00 0.00 100
20260508124252 44 3 3.0 6.0 0.00 0.00 0.00 100
20260508123852 44 352 4.0 7.0 0.00 0.00 0.00 100
20260508123450 44 14 3.0 6.0 0.00 0.00 0.00 100
20260508123050 44 7 4.0 6.0 0.00 0.00 0.00 100
20260508122650 44 20 2.0 4.0 0.00 0.00 0.00 100
20260508122250 44 16 4.0 6.0 0.00 0.00 0.00 100
20260508121850 44 25 5.0 7.0 0.00 0.00 0.00 100
20260508121449 45 37 5.0 8.0 0.00 0.00 0.00 100
20260508121049 45 26 5.0 8.0 0.00 0.00 0.00 100
20260508120641 45 39 4.0 6.0 0.00 0.00 0.00 100
20260508120241 44 13 4.0 7.0 0.00 0.00 0.00 100
20260508115841 44 39 6.0 10.0 0.00 0.00 0.00 100
20260508115439 43 31 4.0 6.0 0.00 0.00 0.00 100
20260508115038 43 15 6.0 9.0 0.00 0.00 0.00 100
20260508114639 43 5 5.0 8.0 0.00 0.00 0.00 100
20260508114239 43 0 5.0 7.0 0.00 0.00 0.00 100
20260508113839 43 19 5.0 7.0 0.00 0.00 0.00 100
20260508113437 43 18 4.0 6.0 0.00 0.00 0.00 100
20260508113036 43 27 4.0 7.0 0.00 0.00 0.00 100
20260508112636 43 19 4.0 7.0 0.00 0.00 0.00 100
20260508112236 43 9 4.0 6.0 0.00 0.00 0.00 100
20260508111836 43 1 4.0 8.0 0.00 0.00 0.00 100
20260508111434 43 12 6.0 8.0 0.00 0.00 0.00 100
20260508111034 43 13 5.0 8.0 0.00 0.00 0.00 100
20260508110634 43 15 5.0 6.0 0.00 0.00 0.00 100
20260508110234 43 349 4.0 8.0 0.00 0.00 0.00 100
20260508105835 43 2 5.0 8.0 0.00 0.00 0.00 100
20260508105432 43 8 5.0 9.0 0.00 0.00 0.00 100
20260508105031 43 16 5.0 8.0 0.00 0.00 0.00 100
20260508104631 43 344 6.0 9.0 0.00 0.00 0.00 100
20260508104231 43 8 6.0 9.0 0.00 0.00 0.00 100
20260508103831 43 17 5.0 8.0 0.00 0.00 0.00 100
20260508103430 43 14 5.0 8.0 0.00 0.00 0.00 100
20260508103030 43 5 6.0 9.0 0.00 0.00 0.00 100
20260508102629 43 25 4.0 7.0 0.00 0.00 0.00 100
20260508102230 43 8 4.0 6.0 0.00 0.00 0.00 100
20260508101830 43 34 5.0 6.0 0.00 0.00 0.00 100
20260508101428 43 16 6.0 8.0 0.00 0.00 0.00 100
20260508101026 43 4 6.0 8.0 0.00 0.00 0.00 100
20260508100626 43 29 5.0 7.0 0.00 0.00 0.00 100
20260508100226 43 359 3.0 6.0 0.00 0.00 0.00 100
20260508095826 43 314 5.0 7.0 0.00 0.00 0.00 100
20260508095424 43 4 5.0 8.0 0.00 0.00 0.00 100
20260508095024 43 342 5.0 8.0 0.00 0.00 0.00 100
20260508094624 43 5 5.0 8.0 0.00 0.00 0.00 100
20260508094224 43 18 4.0 6.0 0.00 0.00 0.00 100
20260508093824 43 349 4.0 8.0 0.00 0.00 0.00 100
20260508093413 43 20 4.0 6.0 0.00 0.00 0.00 100
20260508093013 43 27 4.0 7.0 0.00 0.00 0.00 100
20260508092613 43 20 3.0 5.0 0.00 0.00 0.00 100
20260508092213 43 14 4.0 7.0 0.00 0.00 0.00 100
20260508091813 44 353 4.0 6.0 0.00 0.00 0.00 100
20260508091411 44 317 3.0 4.0 0.00 0.00 0.00 100
20260508091011 44 339 3.0 5.0 0.00 0.00 0.00 100
20260508090611 44 11 2.0 4.0 0.00 0.00 0.00 100
20260508090211 43 349 3.0 6.0 0.00 0.00 0.00 100
20260508085811 43 16 4.0 6.0 0.00 0.00 0.00 100
20260508085409 43 357 3.0 5.0 0.00 0.00 0.00 100
20260508085008 43 53 3.0 6.0 0.00 0.00 0.00 100
20260508084609 43 3 4.0 6.0 0.00 0.00 0.00 100
20260508084209 43 30 4.0 7.0 0.00 0.00 0.00 100
20260508083809 43 10 3.0 6.0 0.00 0.00 0.00 100
20260508083407 43 8 4.0 7.0 0.00 0.00 0.00 100
20260508083006 43 346 3.0 6.0 0.00 0.00 0.00 100
20260508082606 43 12 2.0 5.0 0.00 0.00 0.00 100
20260508082206 43 2 2.0 4.0 0.00 0.00 0.00 100
20260508081806 42 295 2.0 6.0 0.00 0.00 0.00 100
20260508081404 42 336 2.0 6.0 0.00 0.00 0.00 100
20260508081004 43 326 2.0 4.0 0.00 0.00 0.00 100
20260508080604 43 338 3.0 7.0 0.00 0.00 0.00 100
20260508080204 43 347 3.0 6.0 0.00 0.00 0.00 100
20260508075804 43 353 3.0 4.0 0.00 0.00 0.00 100
20260508075402 43 351 4.0 6.0 0.00 0.00 0.00 100
20260508075002 43 354 3.0 6.0 0.00 0.00 0.00 100
20260508074602 43 0 3.0 5.0 0.00 0.00 0.00 100
20260508074202 43 358 4.0 7.0 0.00 0.00 0.00 100
20260508073802 43 2 4.0 7.0 0.00 0.00 0.00 100
20260508073400 43 9 4.0 5.0 0.00 0.00 0.00 100
20260508073000 43 343 5.0 6.0 0.00 0.00 0.00 100
20260508072600 43 311 3.0 6.0 0.00 0.00 0.00 100
20260508072200 43 6 4.0 7.0 0.00 0.00 0.00 100
20260508071800 43 26 4.0 6.0 0.00 0.00 0.00 100
20260508071358 43 5 2.0 4.0 0.00 0.00 0.00 100
20260508070958 43 43 2.0 4.0 0.00 0.00 0.00 100
20260508070558 43 53 4.0 6.0 0.00 0.00 0.00 100
20260508070158 43 24 2.0 4.0 0.00 0.00 0.00 100
20260508065750 43 7 3.0 6.0 0.00 0.00 0.00 100
20260508065348 43 14 2.0 4.0 0.00 0.00 0.00 100
20260508064949 43 21 3.0 5.0 0.00 0.00 0.00 100
20260508064548 43 27 3.0 11.0 0.00 0.00 0.00 100
20260508064149 43 17 2.0 4.0 0.00 0.00 0.00 100
20260508063749 42 24 1.0 2.0 0.00 0.00 0.00 100
20260508063347 42 350 2.0 4.0 0.00 0.00 0.00 100
20260508062947 42 352 5.0 6.0 0.00 0.00 0.00 100
20260508062547 42 12 4.0 9.0 0.00 0.00 0.00 100
20260508062147 42 1 5.0 8.0 0.00 0.00 0.00 100
20260508061747 42 357 5.0 7.0 0.00 0.00 0.00 100
20260508061345 42 1 6.0 9.0 0.00 0.00 0.00 100
20260508060945 42 345 5.0 9.0 0.00 0.00 0.00 100
20260508060545 42 346 5.0 8.0 0.00 0.00 0.00 100
20260508060143 42 353 4.0 5.0 0.00 0.00 0.00 100
20260508055743 42 330 4.0 10.0 0.00 0.00 0.00 100
20260508055345 42 344 3.0 5.0 0.00 0.00 0.00 100
20260508054941 42 319 4.0 6.0 0.00 0.00 0.00 100
20260508054541 42 333 3.0 8.0 0.00 0.00 0.00 100
20260508054141 42 329 4.0 7.0 0.00 0.00 0.00 100
20260508053741 42 318 4.0 9.0 0.00 0.00 0.00 100
20260508053339 42 331 4.0 6.0 0.00 0.00 0.00 100
20260508052939 42 334 5.0 9.0 0.00 0.00 0.00 100
20260508052539 42 335 4.0 9.0 0.00 0.00 0.00 100
20260508052138 42 325 3.0 7.0 0.00 0.00 0.00 100
20260508051738 42 356 4.0 6.0 0.00 0.00 0.00 100
20260508051336 42 338 4.0 6.0 0.00 0.00 0.00 100
20260508050937 42 350 4.0 6.0 0.00 0.00 0.00 100
20260508050537 43 349 4.0 7.0 0.00 0.00 0.00 100
20260508050137 43 0 2.0 6.0 0.00 0.00 0.00 100
20260508045737 43 354 3.0 4.0 0.00 0.00 0.00 100
20260508045334 43 349 2.0 5.0 0.00 0.00 0.00 100
20260508044934 43 329 2.0 3.0 0.00 0.00 0.00 100
20260508044534 43 354 1.0 2.0 0.00 0.00 0.00 100
20260508044135 43 164 2.0 4.0 0.00 0.00 0.00 100
20260508043735 43 332 2.0 3.0 0.00 0.00 0.00 100
20260508043333 43 343 2.0 5.0 0.00 0.00 0.00 100
20260508042933 43 349 3.0 5.0 0.00 0.00 0.00 100
20260508042532 43 329 3.0 6.0 0.00 0.00 0.00 100
20260508042123 43 344 3.0 5.0 0.00 0.00 0.00 100
20260508041723 43 335 2.0 4.0 0.00 0.00 0.00 100
20260508041321 43 318 2.0 3.0 0.00 0.00 0.00 100
20260508040921 44 309 3.0 6.0 0.00 0.00 0.00 100
20260508040520 44 283 3.0 5.0 0.00 0.00 0.00 100
20260508040120 44 263 4.0 6.0 0.00 0.00 0.00 100
20260508035720 44 93 4.0 6.0 0.00 0.00 0.00 100
20260508035319 44 289 2.0 4.0 0.00 0.00 0.00 100
20260508034919 44 289 1.0 3.0 0.00 0.00 0.00 100
20260508034518 44 289 1.0 1.0 0.00 0.00 0.00 100
20260508034118 44 289 1.0 2.0 0.00 0.00 0.00 100
20260508033718 44 289 1.0 2.0 0.00 0.00 0.00 100
20260508033316 44 289 0.0 1.0 0.00 0.00 0.00 100
20260508032916 44 289 0.0 1.0 0.00 0.00 0.00 100
20260508032516 44 289 0.0 1.0 0.00 0.00 0.00 100
20260508032116 44 289 0.0 1.0 0.00 0.00 0.00 100
20260508031716 44 289 0.0 1.0 0.00 0.00 0.00 100
20260508031314 44 289 0.0 1.0 0.00 0.00 0.00 100
20260508030914 44 289 1.0 1.0 0.00 0.00 0.00 100
20260508030514 44 289 1.0 1.0 0.00 0.00 0.00 100
20260508030113 44 289 1.0 1.0 0.00 0.00 0.00 100
20260508025713 44 289 1.0 1.0 0.00 0.00 0.00 100
20260508025311 44 289 1.0 1.0 0.00 0.00 0.00 100
20260508024911 44 289 1.0 2.0 0.00 0.00 0.00 100
20260508024511 44 289 2.0 4.0 0.00 0.00 0.00 100
20260508024111 44 292 1.0 2.0 0.00 0.00 0.00 100
20260508023711 44 289 0.0 1.0 0.00 0.00 0.00 100
20260508023309 44 289 1.0 2.0 0.00 0.00 0.00 100
20260508022909 44 289 0.0 1.0 0.00 0.00 0.00 100
20260508022509 44 289 1.0 1.0 0.00 0.00 0.00 100
20260508022108 44 289 2.0 3.0 0.00 0.00 0.00 100
20260508021708 44 289 1.0 3.0 0.00 0.00 0.00 100
20260508021307 44 289 0.0 2.0 0.00 0.00 0.00 100
20260508020907 44 289 0.0 3.0 0.00 0.00 0.00 100
20260508020507 44 289 1.0 2.0 0.00 0.00 0.00 100
20260508020107 44 289 0.0 0.0 0.00 0.00 0.00 100
20260508015707 44 289 1.0 3.0 0.00 0.00 0.00 100
20260508015306 44 289 1.0 1.0 0.00 0.00 0.00 100
20260508014903 44 289 1.0 2.0 0.00 0.00 0.00 100
20260508014455 44 289 1.0 2.0 0.00 0.00 0.00 100
20260508014055 44 289 1.0 2.0 0.00 0.00 0.00 100
20260508013655 44 289 2.0 2.0 0.00 0.00 0.00 100
20260508013253 44 282 2.0 4.0 0.00 0.00 0.00 100
20260508012854 44 318 1.0 2.0 0.00 0.00 0.00 100
20260508012453 44 315 1.0 2.0 0.00 0.00 0.00 100
20260508012053 44 328 1.0 2.0 0.00 0.00 0.00 100
20260508011653 44 21 1.0 2.0 0.00 0.00 0.00 100
20260508011251 44 5 1.0 1.0 0.00 0.00 0.00 100
20260508010851 44 293 0.0 0.0 0.00 0.00 0.00 100
20260508010450 44 292 0.0 1.0 0.00 0.00 0.00 100
20260508010050 44 291 1.0 1.0 0.00 0.00 0.00 100
20260508005651 44 348 1.0 3.0 0.00 0.00 0.00 100
20260508005249 44 348 1.0 3.0 0.00 0.00 0.00 100
20260508004849 44 347 1.0 3.0 0.00 0.00 0.00 100
20260508004448 44 346 1.0 2.0 0.00 0.00 0.00 100
20260508004048 44 352 2.0 3.0 0.00 0.00 0.00 100
20260508003648 44 327 2.0 4.0 0.00 0.00 0.00 100
20260508003246 44 69 0.0 1.0 0.00 0.00 0.00 100
20260508002846 44 69 1.0 1.0 0.00 0.00 0.00 100
20260508002446 44 71 1.0 2.0 0.00 0.00 0.00 100
20260508002046 44 71 0.0 1.0 0.00 0.00 0.00 100
20260508001646 44 69 0.0 2.0 0.00 0.00 0.00 100
20260508001244 44 69 1.0 1.0 0.00 0.00 0.00 100
20260508000844 44 69 1.0 2.0 0.00 0.00 0.00 100
20260508000444 44 69 2.0 4.0 0.00 0.00 0.00 100
20260508000043 45 69 2.0 4.0 0.00 0.00 0.00 100
20260507235643 45 69 2.0 2.0 0.00 0.00 0.00 100
20260507235241 45 71 2.0 3.0 0.00 0.00 0.00 100
20260507234841 45 69 2.0 2.0 0.00 0.00 0.00 100
20260507234442 45 69 1.0 1.0 0.00 0.00 0.00 100
20260507234041 45 46 2.0 4.0 0.00 0.00 0.00 100
20260507233641 45 21 2.0 3.0 0.00 0.00 0.00 100
20260507233239 45 26 2.0 4.0 0.00 0.00 0.00 100
20260507232839 45 9 2.0 4.0 0.00 0.00 0.00 100
20260507232439 45 346 2.0 5.0 0.00 0.00 0.00 100
20260507232039 44 30 2.0 4.0 0.00 0.00 0.00 100
20260507231639 44 33 3.0 5.0 0.00 0.00 0.00 100
20260507231228 44 64 3.0 6.0 0.00 0.00 0.00 100
20260507230828 44 63 2.0 5.0 0.00 0.00 0.00 100
20260507230428 44 88 5.0 8.0 0.00 0.00 0.00 100
20260507230027 44 75 2.0 3.0 0.00 0.00 0.00 100
20260507225628 44 47 2.0 3.0 0.00 0.00 0.00 100
20260507225226 44 74 2.0 2.0 0.00 0.00 0.00 100
20260507224826 44 68 2.0 4.0 0.00 0.00 0.00 100
20260507224426 44 74 2.0 4.0 0.00 0.00 0.00 100
20260507224026 44 70 2.0 3.0 0.00 0.00 0.00 100
20260507223626 44 72 2.0 6.0 0.00 0.00 0.00 100
20260507223224 44 72 4.0 8.0 0.00 0.00 0.00 100
20260507222824 44 67 5.0 9.0 0.00 0.00 0.00 100
20260507222424 45 69 3.0 7.0 0.00 0.00 0.00 100
20260507222023 45 53 2.0 4.0 0.00 0.00 0.00 100
20260507221623 45 73 5.0 8.0 0.00 0.00 0.00 100
20260507221221 45 65 5.0 9.0 0.00 0.00 0.00 100
20260507220821 45 57 4.0 6.0 0.00 0.00 0.00 100
20260507220421 45 70 3.0 6.0 0.00 0.00 0.00 100
20260507220021 45 72 5.0 8.0 0.00 0.00 0.00 100
20260507215620 45 64 4.0 8.0 0.00 0.00 0.00 100
20260507215219 45 74 4.0 8.0 0.00 0.00 0.00 100
20260507214819 45 47 6.0 10.0 0.00 0.00 0.00 100
20260507214418 45 61 6.0 10.0 0.00 0.00 0.00 100
20260507214016 45 59 6.0 10.0 0.00 0.00 0.00 100
20260507213616 45 72 6.0 12.0 0.00 0.00 0.00 100
20260507213214 45 58 6.0 9.0 0.00 0.00 0.00 100
20260507212814 45 75 5.0 7.0 0.00 0.00 0.00 100
20260507212414 45 51 7.0 12.0 0.00 0.00 0.00 100
20260507212014 45 55 5.0 8.0 0.00 0.00 0.00 100
20260507211614 45 32 5.0 8.0 0.00 0.00 0.00 100
20260507211212 45 23 7.0 10.0 0.00 0.00 0.00 100
20260507210812 45 21 5.0 7.0 0.00 0.00 0.00 100
20260507210411 46 31 4.0 6.0 0.00 0.00 0.00 100
20260507210011 46 27 4.0 6.0 0.00 0.00 0.00 100
20260507205612 46 16 5.0 6.0 0.00 0.00 0.00 100
20260507205210 46 12 5.0 8.0 0.00 0.00 0.00 100
20260507204810 46 17 5.0 6.0 0.00 0.00 0.00 100
20260507204410 46 17 5.0 7.0 0.00 0.00 0.00 100
20260507204010 46 25 4.0 6.0 0.00 0.00 0.00 100
20260507203602 46 22 4.0 5.0 0.00 0.00 0.00 100
20260507203201 46 0 3.0 6.0 0.00 0.00 0.00 100
20260507202801 46 330 2.0 6.0 0.00 0.00 0.00 100
20260507202401 46 326 2.0 6.0 0.00 0.00 0.00 100
20260507202000 46 286 3.0 5.0 0.00 0.00 0.00 100
20260507201600 46 275 3.0 6.0 0.00 0.00 0.00 100
20260507201158 46 261 4.0 7.0 0.00 0.00 0.00 100
20260507200758 46 263 4.0 6.0 0.00 0.00 0.00 100
20260507200358 47 241 5.0 11.0 0.00 0.00 0.00 100
20260507195958 47 214 6.0 10.0 0.00 0.00 0.00 100
20260507195558 47 267 5.0 8.0 0.00 0.00 0.00 100
20260507195156 47 275 5.0 8.0 0.00 0.00 0.00 100
20260507194756 47 262 5.0 10.0 0.00 0.00 0.00 100
20260507194356 47 260 5.0 8.0 0.00 0.00 0.00 100
20260507193956 47 221 6.0 12.0 0.00 0.00 0.00 100
20260507193556 48 270 7.0 11.0 0.00 0.00 0.00 100
20260507193155 48 147 5.0 9.0 0.00 0.00 0.00 100
20260507192755 48 71 6.0 8.0 0.00 0.00 0.00 100
20260507192355 47 49 5.0 7.0 0.00 0.00 0.00 100
20260507191955 47 236 5.0 9.0 0.00 0.00 0.00 100
20260507191555 47 64 5.0 7.0 0.00 0.00 0.00 100
20260507191153 47 113 6.0 7.0 0.00 0.00 0.00 100
20260507190753 47 60 5.0 7.0 0.00 0.00 0.00 100
20260507190353 47 118 6.0 8.0 0.00 0.00 0.00 100
20260507185953 47 59 6.0 10.0 0.00 0.00 0.00 100
20260507185553 47 75 6.0 8.0 0.00 0.00 0.00 100
20260507185151 47 188 6.0 9.0 0.00 0.00 0.00 100
20260507184750 47 121 6.0 9.0 0.00 0.00 0.00 100
20260507184350 47 177 6.0 9.0 0.00 0.00 0.00 100
20260507183950 46 180 6.0 10.0 0.00 0.00 0.00 100
20260507183550 46 161 7.0 9.0 0.00 0.00 0.00 100
20260507183148 46 210 7.0 10.0 0.00 0.00 0.00 100
20260507182748 46 163 8.0 10.0 0.00 0.00 0.00 100
20260507182348 46 174 7.0 10.0 0.00 0.00 0.00 100
20260507181948 46 204 7.0 11.0 0.00 0.00 0.00 100
20260507181548 46 202 8.0 13.0 0.00 0.00 0.00 100
20260507181147 46 189 8.0 13.0 0.00 0.00 0.00 100
20260507180747 46 192 8.0 12.0 0.00 0.00 0.00 100
20260507180347 46 182 7.0 10.0 0.00 0.00 0.00 100
20260507175938 46 177 7.0 12.0 0.00 0.00 0.00 100
20260507175538 46 141 7.0 10.0 0.00 0.00 0.00 100
20260507175135 46 125 8.0 11.0 0.00 0.00 0.00 100
20260507174735 46 195 6.0 9.0 0.00 0.00 0.00 100
20260507174335 46 180 9.0 12.0 0.00 0.00 0.00 100
20260507173935 46 170 8.0 11.0 0.00 0.00 0.00 100
20260507173535 46 143 6.0 9.0 0.00 0.00 0.00 100
20260507173133 46 195 7.0 11.0 0.00 0.00 0.00 100
20260507172731 46 140 8.0 11.0 0.00 0.00 0.00 100
20260507172331 46 199 8.0 12.0 0.00 0.00 0.00 100
20260507171930 46 146 6.0 8.0 0.00 0.00 0.00 100
20260507171530 46 209 8.0 11.0 0.00 0.00 0.00 100
20260507171128 46 201 6.0 9.0 0.00 0.00 0.00 100
20260507170728 46 190 7.0 10.0 0.00 0.00 0.00 100
20260507170330 46 180 6.0 9.0 0.00 0.00 0.00 100
20260507165928 46 206 6.0 9.0 0.00 0.00 0.00 100
20260507165528 46 194 7.0 11.0 0.00 0.00 0.00 100
20260507165126 46 197 6.0 9.0 0.00 0.00 0.00 100
20260507164726 46 182 6.0 10.0 0.00 0.00 0.00 100
20260507164326 46 217 6.0 8.0 0.00 0.00 0.00 100
20260507163927 46 211 6.0 8.0 0.00 0.00 0.00 100
20260507163527 46 208 5.0 7.0 0.00 0.00 0.00 100
20260507163125 46 176 7.0 9.0 0.00 0.00 0.00 100
20260507162725 46 149 7.0 10.0 0.00 0.00 0.00 100
20260507162325 45 198 6.0 8.0 0.00 0.00 0.00 100